Regional Weather Roundup
Issued by NWS

Home | Current Version | Previous Version | Text Only | Print | Product List | Glossary On
Versions: 1 2 3 4 5 6 7 8 9 10 11 12 13 14 15 16 17 18 19 20 21 22 23 24 25 26 27 28 29 30 31 32 33 34 35 36 37 38 39 40 41 42 43 44 45 46 47 48 49 50
000
ASUS43 KDTX 191910
RWRMI
MICHIGAN HOURLY REGIONAL WEATHER ROUNDUP
NATIONAL WEATHER SERVICE DETROIT/PONTIAC MI
ISSUED BY NATIONAL WEATHER SERVICE GRAND RAPIDS MI
200 PM EST THU JAN 19 2017

NOTE: "FAIR" INDICATES FEW OR NO CLOUDS BELOW 12,000 FEET WITH NO
SIGNIFICANT WEATHER AND/OR OBSTRUCTION TO VISIBILITY.

MIZ047>049-052>055-059>063-066>070-074>076-081>083-192000-
SOUTHEAST LOWER MICHIGAN

CITY           SKY/WX    TMP DP  RH WIND       PRES   REMARKS
ADRIAN         CLOUDY    35  33  92 SW9       30.02R WCI  28
ALMA           CLOUDY    37  34  89 S8        29.96S FOG     WCI  30
ANN ARBOR      CLOUDY    36  32  85 S9        29.99R WCI  29
BAD AXE        CLOUDY    33  32  96 S8        29.96F FOG     WCI  26
DETROIT CITY   CLOUDY    37  32  81 MISG      30.00F
DETROIT        CLOUDY    38  32  79 S8        30.01F HAZE    WCI  32
FLINT          MOSUNNY   39  33  79 S6        29.97F WCI  35
GROSSE ILE     CLOUDY    35  32  90 SW8       30.01R FOG     WCI  28
HILLSDALE      CLOUDY    36  32  87 SE6       29.97R FOG     WCI  31
HOWELL         SUNNY     40  33  76 SW6       29.97R

CITY           SKY/WX    TMP DP  RH WIND       PRES   REMARKS
JACKSON        CLOUDY    41  32  70 SE6       29.98R
LANSING        SUNNY     40  31  70 S7        29.97F
MASON          CLOUDY    38  34  84 S3        29.97R
MONROE         CLOUDY    37  34  89 S8        30.01R FOG     WCI  30
MT. CLEMENS    CLOUDY    36  32  88 SE7       29.97F FOG     WCI  30
PONTIAC        PTSUNNY   38  32  79 S6        29.95F WCI  33
PORT HOPE        N/A     35  33  92 S6        29.96F WCI  30
PORT HURON     CLOUDY    34  32  93 S3        29.98F FOG
TRI CITIES     CLOUDY    37  34  89 SW7       29.96F FOG     WCI  32
YPSILANTI      CLOUDY    38  33  82 SW8       30.00F WCI  32
$$
MIZ043>046-050>051-056>058-064>065-071>073-077>080-192000-
SOUTHWEST LOWER MICHIGAN

CITY           SKY/WX    TMP DP  RH WIND       PRES   REMARKS
BATTLE CREEK   CLOUDY    41  36  82 S6        29.97S
BENTON HARBOR  CLOUDY    41  36  82 E10       29.94F HAZE
BIG RAPIDS     MOSUNNY   40  33  75 SW6       29.93F
COLDWATER      CLOUDY    39  35  86 S6        29.97F WCI  35
HOLLAND        CLOUDY    37  35  92 SE8       29.96F WCI  31
GRAND RAPIDS   CLOUDY    38  32  79 SW3       29.96F
KALAMAZOO      CLOUDY    39  33  79 S5        29.97F HAZE
MARSHALL       CLOUDY    41  34  76 S3        29.97S
MOUNT PLEASANT CLOUDY    40  34  80 S5        29.93F
MUSKEGON       CLOUDY    39  34  82 SE5       29.95F
STURGIS        CLOUDY    39  35  86 S6        29.96F WCI  34
$$
MIZ016>042-192000-
NORTHERN LOWER MICHIGAN

CITY           SKY/WX    TMP DP  RH WIND       PRES   REMARKS
ALPENA         CLOUDY    36  31  82 CALM      29.92F
BEAVER ISLAND  CLOUDY    35  35 100 SW7       29.89F FOG     WCI  29
BELLAIRE       CLOUDY    36  33  90 SW3       29.92F FOG
CADILLAC       FOG       33  32  96 S7        29.90F VSB 1/4 WCI  27
CHARLEVOIX     CLOUDY    35  34  99 S6        29.94F FOG     WCI  30
GAYLORD        CLOUDY    36  32  85 SE5       29.88F FOG     WCI  32
HOUGHTON LAKE  CLOUDY    33  32  96 S6        29.91F FOG     WCI  28
OSCODA         CLOUDY    37  34  91 S7        29.94F FOG     WCI  31
PELLSTON       CLOUDY    35  32  88 S6        29.92F FOG     WCI  30
TRAVERSE CITY  CLOUDY    37  33  85 SW6       29.90F WCI  32
LUDINGTON      CLOUDY    38  35  91 S8        29.93F FOG     WCI  32
$$
MIZ007>008-015-192000-
EASTERN UPPER MICHIGAN

CITY           SKY/WX    TMP DP  RH WIND       PRES   REMARKS
KINROSS        CLOUDY    36  33  89 S8        29.90F FOG     WCI  30
MACKINAC ISLAN CLOUDY    34  34 100 S3        29.92F FOG
NEWBERRY       FOG       33  32  98 S12       29.86F VSB<1/4 WCI  24
S. S. MARIE    CLOUDY    37  32  82 S6        29.90F HAZE    WCI  32
$$
MIZ004>006-011>014-085-192000-
CENTRAL UPPER MICHIGAN

CITY           SKY/WX    TMP DP  RH WIND       PRES   REMARKS
MANISTIQUE     FOG       31  31  98 SW10      29.87F VSB 1/4 WCI  23
ESCANABA       FOG       34  34 100 S7        29.87F VSB 1   WCI  28
SAWYER-GWINN   FOG       32  32 100 SW10      29.82F VSB 1/2 WCI  24
$$
MIZ001>003-009>011-084-192000-
WESTERN UPPER MICHIGAN

CITY           SKY/WX    TMP DP  RH WIND       PRES   REMARKS
IRON MOUNTAIN  MOSUNNY   37  31  78 S7        29.82F WCI  32
HOUGHTON       CLOUDY    35  32  88 S6        29.77F FOG     WCI  30
COPPER HARBOR    N/A     38  31  76 N9        29.78F WCI  31
IRONWOOD       SUNNY     45  36  70 S8        29.76F
$$

ABBREVIATIONS USED IN REMARKS
   TC - TEMPERATURE IN CELSIUS
  WCI - WIND CHILL INDEX
   HX - HEAT INDEX
  VSB - VISIBILITY





USA.gov is the U.S. government's official web portal to all federal, state and local government web resources and services.